This is the latest recevied weather packets stored in our database for station/object IK6ZNK-3. If no packets are shown the sender has not sent any weather packets the latest 10 day(s).
| Time | Temp. | Humidity | Pressure | Rain* | Wind** | Luminosity | Snow |
|---|---|---|---|---|---|---|---|
| 1777989008 | 20° C | 69% | 1007 hPa | 0 mm | - | - | - |
| 1777988407 | 20° C | 70% | 1007 hPa | 0 mm | - | - | - |
| 1777987809 | 20° C | 70% | 1006.9 hPa | 0 mm | - | - | - |
| 1777987210 | 19.44° C | 71% | 1007 hPa | 0 mm | - | - | - |
| 1777986609 | 19.44° C | 70% | 1006.9 hPa | 0 mm | - | - | - |
| 1777986008 | 19.44° C | 71% | 1007 hPa | 0 mm | - | - | - |
| 1777985413 | 19.44° C | 71% | 1007.3 hPa | 0 mm | - | - | - |
| 1777984809 | 19.44° C | 72% | 1007.4 hPa | 0 mm | - | - | - |
| 1777984209 | 19.44° C | 69% | 1007.1 hPa | 0 mm | - | - | - |
| 1777983608 | 20° C | 69% | 1007.3 hPa | 0 mm | - | - | - |
| 1777983007 | 20° C | 70% | 1007.4 hPa | 0 mm | - | - | - |
| 1777982411 | 20° C | 67% | 1007.4 hPa | 0 mm | - | - | - |
| 1777981809 | 18.89° C | 70% | 1007.4 hPa | 0 mm | - | - | - |
| 1777981209 | 18.33° C | 72% | 1007.4 hPa | 0 mm | - | - | - |
| 1777980613 | 19.44° C | 71% | 1007.5 hPa | 0 mm | - | - | - |
| 1777980010 | 20° C | 64% | 1007.4 hPa | 0 mm | - | - | - |
| 1777979410 | 19.44° C | 58% | 1007.4 hPa | 0 mm | - | - | - |
| 1777978808 | 19.44° C | 59% | 1007.5 hPa | 0 mm | - | - | - |
| 1777978207 | 21.11° C | 58% | 1007.4 hPa | 0 mm | - | - | - |
| 1777977608 | 20.56° C | 58% | 1007.7 hPa | 0 mm | - | - | - |
| 1777977009 | 20.56° C | 58% | 1007.4 hPa | 0 mm | - | - | - |
| 1777976409 | 19.44° C | 61% | 1007.7 hPa | 0 mm | - | - | - |
| 1777975809 | 19.44° C | 61% | 1007.3 hPa | 0 mm | - | - | - |
| 1777975214 | 18.89° C | 59% | 1007.5 hPa | 0 mm | - | - | - |
| 1777974609 | 19.44° C | 60% | 1007.5 hPa | 0 mm | - | - | - |
* Rain latest hour (hover to see other rain measurements)
** Current wind speed in m/s (hover to see current wind gust speed)